Location: Mountain Grove
(34.0887°N, 86.6172°W)
Time: 21:00:46
(UTC+00:00)

BREEZE-M DEB (TANK) - Pass Details

Date: 14 July 2020
Orbit: 274 x 20502 km, 49.2° (Epoch: 08 August)

Event Time Altitude Azimuth Distance (km) Brightness Sun altitude
Rises 01:23:12 0° 226° (SW) 9,813 9.4 -5.2°
Reaches altitude 10° 01:33:00 10° 227° (SW) 6,076 8.3 -6.9°
Maximum altitude 01:45:18 85° 141° (SE) 860 3.7 -9.1°
Drops below altitude 10° 01:48:30 10° 52° (NE) 1,681 5.1 -9.6°
Sets 01:49:45 0° 52° (NE) 2,290 5.8 -9.8°
